BAW902 EGLL-EDDF

Flight info

Callsign BAW902
Flight time 1h 13m
Altitude 35000
Route BPK Q295 MATCH DCT REDFA DCT TACHA DCT NOLRU DCT DIXAT DIXAT1A
Aircraft A320/M-SDE3FGHIRWY/LB1

Departure

Time 2026-05-06 08:50
Airport London Heathrow Airport (EGLL)

Arrival

Time 2026-05-06 10:03
Airport Frankfurt Main Airport (EDDF)
Time Latitude Longitude Altitude Speed Heading
2026-05-06 08:02 51.47233 -0.48585 91 ft 0 kts 270°
2026-05-06 08:36 51.47233 -0.48579 86 ft 3 kts 270°
2026-05-06 08:36 51.47233 -0.48537 91 ft 4 kts 270°
2026-05-06 08:36 51.47233 -0.48502 89 ft 4 kts 255°
2026-05-06 08:36 51.47246 -0.48475 88 ft 4 kts 191°
2026-05-06 08:37 51.47270 -0.48473 88 ft 2 kts 180°
2026-05-06 08:37 51.47272 -0.48473 88 ft 0 kts 180°
2026-05-06 08:42 51.47263 -0.48473 86 ft 5 kts 180°
2026-05-06 08:43 51.47245 -0.48473 89 ft 6 kts 180°
2026-05-06 08:43 51.47178 -0.48473 90 ft 11 kts 180°
2026-05-06 08:43 51.47092 -0.48473 90 ft 14 kts 180°
2026-05-06 08:43 51.46988 -0.48471 87 ft 16 kts 179°
2026-05-06 08:44 51.46867 -0.48470 88 ft 19 kts 180°
2026-05-06 08:44 51.46750 -0.48469 86 ft 15 kts 179°
2026-05-06 08:44 51.46684 -0.48468 86 ft 5 kts 180°
2026-05-06 08:44 51.46629 -0.48470 86 ft 4 kts 180°
2026-05-06 08:45 51.46618 -0.48470 86 ft 2 kts 180°
2026-05-06 08:45 51.46610 -0.48470 86 ft 0 kts 180°
2026-05-06 08:45 51.46600 -0.48470 86 ft 0 kts 181°
2026-05-06 08:45 51.46569 -0.48471 86 ft 12 kts 181°
2026-05-06 08:46 51.46494 -0.48460 88 ft 11 kts 154°
2026-05-06 08:46 51.46478 -0.48385 87 ft 8 kts 85°
2026-05-06 08:46 51.46479 -0.48340 87 ft 0 kts 90°
2026-05-06 08:49 51.46479 -0.48330 87 ft 7 kts 90°
2026-05-06 08:49 51.46480 -0.47910 87 ft 73 kts 90°
2026-05-06 08:49 51.46482 -0.47197 89 ft 114 kts 89°
2026-05-06 08:49 51.46489 -0.45667 92 ft 159 kts 89°
2026-05-06 08:50 51.46488 -0.43866 636 ft 161 kts 88°
2026-05-06 08:50 51.46513 -0.42059 1237 ft 168 kts 85°
2026-05-06 08:50 51.46910 -0.40249 1614 ft 184 kts 47°
2026-05-06 08:50 51.47845 -0.38677 1899 ft 205 kts 45°
2026-05-06 08:51 51.48849 -0.36886 2319 ft 227 kts 47°
2026-05-06 08:51 51.49941 -0.34868 2945 ft 244 kts 48°
2026-05-06 08:51 51.51026 -0.32817 3973 ft 245 kts 49°
2026-05-06 08:51 51.52109 -0.30666 4897 ft 251 kts 51°
2026-05-06 08:52 51.53173 -0.28392 5712 ft 258 kts 51°
2026-05-06 08:52 51.54269 -0.26061 6507 ft 266 kts 51°
2026-05-06 08:52 51.55404 -0.23650 6883 ft 273 kts 51°
2026-05-06 08:52 51.56547 -0.21213 6975 ft 273 kts 51°
2026-05-06 08:53 51.57702 -0.18737 6993 ft 273 kts 51°
2026-05-06 08:53 51.58842 -0.16290 7000 ft 273 kts 51°
2026-05-06 08:53 51.59936 -0.13940 7003 ft 273 kts 51°
2026-05-06 08:53 51.61076 -0.11496 7002 ft 274 kts 51°
2026-05-06 08:54 51.62216 -0.09045 6996 ft 273 kts 51°
2026-05-06 08:54 51.63353 -0.06596 7001 ft 273 kts 51°
2026-05-06 08:54 51.64495 -0.04136 7187 ft 276 kts 51°
2026-05-06 08:54 51.65646 -0.01653 8098 ft 278 kts 51°
2026-05-06 08:55 51.66808 0.00857 8950 ft 282 kts 51°
2026-05-06 08:55 51.67989 0.03410 9786 ft 286 kts 51°
2026-05-06 08:55 51.69202 0.06034 10330 ft 302 kts 52°
2026-05-06 08:55 51.70523 0.08898 10561 ft 326 kts 52°
2026-05-06 08:56 51.71909 0.11900 11016 ft 339 kts 52°
2026-05-06 08:56 51.73308 0.14939 11658 ft 344 kts 52°
2026-05-06 08:56 51.74745 0.18063 12321 ft 349 kts 52°
2026-05-06 08:56 51.76200 0.21227 12978 ft 353 kts 52°
2026-05-06 08:57 51.77544 0.24580 13616 ft 359 kts 62°
2026-05-06 08:57 51.78476 0.28349 14250 ft 364 kts 73°
2026-05-06 08:57 51.79097 0.32337 14872 ft 368 kts 75°
2026-05-06 08:57 51.79731 0.36370 15474 ft 372 kts 75°
2026-05-06 08:58 51.80377 0.40426 16063 ft 376 kts 75°
2026-05-06 08:58 51.81033 0.44533 16619 ft 379 kts 75°
2026-05-06 08:58 51.81699 0.48686 17188 ft 383 kts 75°
2026-05-06 08:58 51.82367 0.52871 17754 ft 386 kts 75°
2026-05-06 08:59 51.83033 0.57088 18303 ft 390 kts 76°
2026-05-06 08:59 51.83704 0.61366 18860 ft 393 kts 76°
2026-05-06 08:59 51.84376 0.65674 19430 ft 396 kts 76°
2026-05-06 08:59 51.85056 0.70007 19969 ft 400 kts 76°
2026-05-06 09:00 51.85743 0.74382 20486 ft 403 kts 76°
2026-05-06 09:00 51.86431 0.78791 20994 ft 406 kts 76°
2026-05-06 09:00 51.87119 0.83231 21498 ft 408 kts 76°
2026-05-06 09:00 51.87808 0.87699 21967 ft 411 kts 76°
2026-05-06 09:01 51.88501 0.92202 22424 ft 414 kts 76°
2026-05-06 09:01 51.89190 0.96676 22866 ft 416 kts 76°
2026-05-06 09:01 51.89890 1.01231 23310 ft 419 kts 76°
2026-05-06 09:01 51.90595 1.05821 23744 ft 422 kts 77°
2026-05-06 09:02 51.91303 1.10448 24168 ft 425 kts 77°
2026-05-06 09:02 51.92009 1.15107 24601 ft 427 kts 77°
2026-05-06 09:02 51.92715 1.19787 25025 ft 429 kts 77°
2026-05-06 09:02 51.93424 1.24496 25437 ft 431 kts 77°
2026-05-06 09:03 51.94136 1.29225 25835 ft 433 kts 77°
2026-05-06 09:03 51.94852 1.33973 26224 ft 435 kts 77°
2026-05-06 09:03 51.95568 1.38749 26619 ft 437 kts 77°
2026-05-06 09:03 51.96284 1.43548 27002 ft 439 kts 77°
2026-05-06 09:04 51.97004 1.48375 27394 ft 441 kts 77°
2026-05-06 09:04 51.97724 1.53213 27774 ft 443 kts 77°
2026-05-06 09:04 51.98445 1.58081 28145 ft 444 kts 77°
2026-05-06 09:04 51.99164 1.62963 28492 ft 446 kts 78°
2026-05-06 09:05 51.99889 1.67870 28827 ft 448 kts 78°
2026-05-06 09:05 52.00614 1.72810 29155 ft 451 kts 78°
2026-05-06 09:05 52.01338 1.77768 29466 ft 453 kts 78°
2026-05-06 09:05 52.02066 1.82756 29804 ft 455 kts 78°
2026-05-06 09:06 52.02789 1.87739 30276 ft 453 kts 78°
2026-05-06 09:06 52.03514 1.92706 30751 ft 451 kts 78°
2026-05-06 09:06 52.04230 1.97666 31194 ft 450 kts 78°
2026-05-06 09:06 52.04937 2.02613 31615 ft 450 kts 78°
2026-05-06 09:07 52.05644 2.07565 32033 ft 449 kts 78°
2026-05-06 09:07 52.06349 2.12499 32449 ft 449 kts 78°
2026-05-06 09:07 52.07055 2.17436 32850 ft 448 kts 78°
2026-05-06 09:07 52.07750 2.22304 33236 ft 448 kts 78°
2026-05-06 09:08 52.08449 2.27232 33643 ft 447 kts 78°
2026-05-06 09:08 52.09155 2.32224 34031 ft 447 kts 78°
2026-05-06 09:08 52.09839 2.37084 34401 ft 447 kts 78°
2026-05-06 09:08 52.10529 2.42009 34757 ft 447 kts 78°
2026-05-06 09:09 52.11220 2.46953 34899 ft 449 kts 78°
2026-05-06 09:09 52.12830 2.56837 34925 ft 454 kts 74°
2026-05-06 09:10 52.14771 2.66624 34923 ft 455 kts 72°
2026-05-06 09:10 52.16740 2.76399 34925 ft 454 kts 73°
2026-05-06 09:11 52.18612 2.86237 34925 ft 455 kts 74°
2026-05-06 09:11 52.20433 2.96110 34931 ft 455 kts 74°
2026-05-06 09:12 52.22258 3.05987 34928 ft 455 kts 74°
2026-05-06 09:12 52.24048 3.15876 34936 ft 454 kts 79°
2026-05-06 09:13 52.24415 3.26053 34932 ft 449 kts 98°
2026-05-06 09:13 52.22836 3.35805 34932 ft 444 kts 113°
2026-05-06 09:14 52.20590 3.45201 34932 ft 445 kts 113°
2026-05-06 09:14 52.18333 3.54590 34931 ft 445 kts 113°
2026-05-06 09:15 52.16088 3.63895 34932 ft 444 kts 113°
2026-05-06 09:15 52.13823 3.73255 34917 ft 445 kts 113°
2026-05-06 09:16 52.11540 3.82639 34909 ft 447 kts 113°
2026-05-06 09:16 52.09241 3.92033 34913 ft 447 kts 113°
2026-05-06 09:17 52.06940 4.01437 34918 ft 448 kts 113°
2026-05-06 09:17 52.04627 4.10831 34918 ft 448 kts 113°
2026-05-06 09:18 52.02307 4.20215 34914 ft 448 kts 113°
2026-05-06 09:18 51.99978 4.29603 34912 ft 448 kts 114°
2026-05-06 09:19 51.97639 4.38966 34910 ft 448 kts 114°
2026-05-06 09:19 51.95292 4.48321 34908 ft 447 kts 114°
2026-05-06 09:20 51.92943 4.57660 34907 ft 448 kts 114°
2026-05-06 09:20 51.90590 4.66979 34900 ft 447 kts 114°
2026-05-06 09:21 51.88222 4.76283 34899 ft 448 kts 114°
2026-05-06 09:21 51.85844 4.85594 34900 ft 447 kts 114°
2026-05-06 09:22 51.83471 4.94889 34897 ft 447 kts 114°
2026-05-06 09:22 51.81090 5.04170 34892 ft 447 kts 114°
2026-05-06 09:23 51.78695 5.13431 34887 ft 446 kts 114°
2026-05-06 09:23 51.76300 5.22673 34886 ft 446 kts 114°
2026-05-06 09:24 51.73902 5.31896 34886 ft 446 kts 115°
2026-05-06 09:24 51.71499 5.41106 34886 ft 446 kts 115°
2026-05-06 09:25 51.69089 5.50307 34887 ft 445 kts 115°
2026-05-06 09:25 51.66671 5.59485 34887 ft 444 kts 115°
2026-05-06 09:26 51.64251 5.68625 34885 ft 443 kts 115°
2026-05-06 09:26 51.61829 5.77753 34883 ft 443 kts 115°
2026-05-06 09:27 51.59406 5.86865 34880 ft 443 kts 115°
2026-05-06 09:27 51.56985 5.95922 34877 ft 444 kts 115°
2026-05-06 09:28 51.54539 6.05013 34870 ft 443 kts 115°
2026-05-06 09:28 51.52069 6.14149 34860 ft 443 kts 115°
2026-05-06 09:29 51.49633 6.23163 34852 ft 443 kts 115°
2026-05-06 09:29 51.47321 6.32410 34846 ft 444 kts 113°
2026-05-06 09:30 51.45130 6.41613 34843 ft 444 kts 113°
2026-05-06 09:30 51.42898 6.50848 34842 ft 445 kts 113°
2026-05-06 09:31 51.40619 6.60062 34839 ft 445 kts 114°
2026-05-06 09:31 51.38313 6.69260 34832 ft 445 kts 114°
2026-05-06 09:32 51.36007 6.78468 34831 ft 446 kts 114°
2026-05-06 09:32 51.33703 6.87690 34826 ft 447 kts 114°
2026-05-06 09:33 51.31387 6.96905 34834 ft 447 kts 114°
2026-05-06 09:33 51.29033 7.06073 34780 ft 445 kts 117°
2026-05-06 09:33 51.27513 7.10380 33844 ft 448 kts 127°
2026-05-06 09:34 51.25535 7.14224 32398 ft 449 kts 137°
2026-05-06 09:34 51.23160 7.17466 30870 ft 451 kts 146°
2026-05-06 09:34 51.20484 7.20033 29598 ft 446 kts 155°
2026-05-06 09:34 51.17718 7.22206 28346 ft 441 kts 155°
2026-05-06 09:35 51.14985 7.24366 27717 ft 435 kts 155°
2026-05-06 09:35 51.12295 7.26509 27111 ft 430 kts 155°
2026-05-06 09:35 51.10492 7.27953 26685 ft 428 kts 155°
2026-05-06 09:35 51.07005 7.30806 25882 ft 423 kts 154°
2026-05-06 09:36 51.05282 7.32240 25483 ft 421 kts 154°
2026-05-06 09:36 51.02669 7.34422 24880 ft 417 kts 154°
2026-05-06 09:36 51.00107 7.36559 24290 ft 413 kts 154°
2026-05-06 09:36 50.97567 7.38660 23713 ft 410 kts 154°
2026-05-06 09:37 50.95047 7.40733 23159 ft 406 kts 154°
2026-05-06 09:37 50.92548 7.42782 22620 ft 402 kts 154°
2026-05-06 09:37 50.90103 7.44779 22114 ft 398 kts 154°
2026-05-06 09:37 50.87655 7.46781 21619 ft 394 kts 154°
2026-05-06 09:38 50.85235 7.48763 21123 ft 391 kts 154°
2026-05-06 09:38 50.82831 7.50733 20636 ft 386 kts 155°
2026-05-06 09:38 50.80456 7.52678 20136 ft 383 kts 155°
2026-05-06 09:38 50.78102 7.54598 19642 ft 379 kts 155°
2026-05-06 09:39 50.75768 7.56493 19130 ft 376 kts 155°
2026-05-06 09:39 50.73454 7.58372 18618 ft 372 kts 155°
2026-05-06 09:39 50.71160 7.60229 18088 ft 369 kts 155°
2026-05-06 09:39 50.68884 7.62071 17580 ft 366 kts 155°
2026-05-06 09:40 50.66637 7.63892 17154 ft 361 kts 155°
2026-05-06 09:40 50.64410 7.65696 16709 ft 358 kts 155°
2026-05-06 09:40 50.60006 7.69257 15837 ft 354 kts 155°
2026-05-06 09:41 50.57827 7.71020 15428 ft 351 kts 155°
2026-05-06 09:41 50.55654 7.72773 15026 ft 350 kts 156°
2026-05-06 09:41 50.53498 7.74510 14632 ft 348 kts 156°
2026-05-06 09:41 50.51349 7.76241 14227 ft 346 kts 156°
2026-05-06 09:42 50.49215 7.77954 13833 ft 344 kts 156°
2026-05-06 09:42 50.47089 7.79657 13433 ft 342 kts 156°
2026-05-06 09:42 50.44972 7.81347 13047 ft 340 kts 156°
2026-05-06 09:42 50.42938 7.83230 12645 ft 342 kts 147°
2026-05-06 09:43 50.41064 7.85535 12136 ft 341 kts 145°
2026-05-06 09:43 50.39214 7.87837 11642 ft 339 kts 145°
2026-05-06 09:43 50.37372 7.90131 11158 ft 336 kts 145°
2026-05-06 09:43 50.35544 7.92400 10825 ft 334 kts 145°
2026-05-06 09:44 50.33723 7.94662 10772 ft 329 kts 145°
2026-05-06 09:44 50.31978 7.96828 10783 ft 313 kts 146°
2026-05-06 09:44 50.30308 7.98894 10739 ft 300 kts 146°
2026-05-06 09:44 50.28694 8.00889 10582 ft 291 kts 146°
2026-05-06 09:45 50.27133 8.02819 10401 ft 281 kts 146°
2026-05-06 09:45 50.25750 8.04970 9864 ft 282 kts 132°
2026-05-06 09:45 50.24548 8.07416 9418 ft 284 kts 131°
2026-05-06 09:45 50.23350 8.09857 9121 ft 283 kts 131°
2026-05-06 09:46 50.22156 8.12287 8809 ft 281 kts 131°
2026-05-06 09:46 50.20967 8.14697 8504 ft 280 kts 131°
2026-05-06 09:46 50.19778 8.17100 8181 ft 279 kts 131°
2026-05-06 09:46 50.18596 8.19493 7893 ft 278 kts 131°
2026-05-06 09:47 50.17424 8.21870 7597 ft 276 kts 131°
2026-05-06 09:47 50.16255 8.24243 7305 ft 275 kts 130°
2026-05-06 09:47 50.15092 8.26597 6993 ft 274 kts 130°
2026-05-06 09:47 50.13932 8.28938 6696 ft 272 kts 130°
2026-05-06 09:48 50.12774 8.31270 6415 ft 271 kts 130°
2026-05-06 09:48 50.11636 8.33593 6120 ft 270 kts 126°
2026-05-06 09:48 50.10823 8.36220 5926 ft 271 kts 108°
2026-05-06 09:48 50.10527 8.39092 5809 ft 274 kts 91°
2026-05-06 09:49 50.10779 8.42029 5670 ft 274 kts 73°
2026-05-06 09:49 50.11447 8.44851 5552 ft 274 kts 69°
2026-05-06 09:49 50.12122 8.47630 5412 ft 274 kts 70°
2026-05-06 09:49 50.12783 8.50376 5299 ft 273 kts 70°
2026-05-06 09:50 50.13443 8.53141 5173 ft 272 kts 70°
2026-05-06 09:50 50.14100 8.55907 5039 ft 271 kts 70°
2026-05-06 09:50 50.14751 8.58664 4924 ft 271 kts 70°
2026-05-06 09:50 50.15401 8.61425 4797 ft 271 kts 70°
2026-05-06 09:51 50.16052 8.64170 4668 ft 269 kts 70°
2026-05-06 09:51 50.16705 8.66901 4550 ft 268 kts 70°
2026-05-06 09:51 50.17355 8.69624 4425 ft 268 kts 70°
2026-05-06 09:51 50.18004 8.72338 4317 ft 267 kts 70°
2026-05-06 09:52 50.18651 8.75042 4205 ft 266 kts 70°
2026-05-06 09:52 50.19299 8.77744 4085 ft 266 kts 70°
2026-05-06 09:52 50.19945 8.80436 3988 ft 265 kts 70°
2026-05-06 09:52 50.20594 8.83126 4013 ft 265 kts 70°
2026-05-06 09:53 50.21258 8.85812 4011 ft 265 kts 65°
2026-05-06 09:53 50.22225 8.88267 4002 ft 266 kts 55°
2026-05-06 09:53 50.23299 8.90618 4018 ft 266 kts 54°
2026-05-06 09:53 50.24386 8.92958 4019 ft 267 kts 54°
2026-05-06 09:54 50.25473 8.95296 4000 ft 265 kts 54°
2026-05-06 09:54 50.26524 8.97657 3997 ft 265 kts 61°
2026-05-06 09:54 50.27216 9.00316 4011 ft 264 kts 73°
2026-05-06 09:54 50.27431 9.03097 4021 ft 262 kts 98°
2026-05-06 09:55 50.26804 9.05719 3998 ft 258 kts 129°
2026-05-06 09:55 50.25465 9.07490 4008 ft 253 kts 154°
2026-05-06 09:55 50.23924 9.08832 4011 ft 256 kts 142°
2026-05-06 09:55 50.22691 9.10866 4020 ft 257 kts 136°
2026-05-06 09:56 50.21211 9.12185 4002 ft 241 kts 172°
2026-05-06 09:56 50.19565 9.12107 4008 ft 237 kts 195°
2026-05-06 09:56 50.18061 9.11096 4001 ft 235 kts 215°
2026-05-06 09:56 50.16894 9.09332 4022 ft 236 kts 236°
2026-05-06 09:57 50.16161 9.07059 4003 ft 236 kts 246°
2026-05-06 09:57 50.15492 9.04724 4002 ft 236 kts 245°
2026-05-06 09:57 50.14818 9.02393 4019 ft 236 kts 245°
2026-05-06 09:57 50.14033 9.00161 4014 ft 235 kts 238°
2026-05-06 09:58 50.13285 8.97891 4016 ft 236 kts 246°
2026-05-06 09:58 50.12697 8.95509 4009 ft 236 kts 250°
2026-05-06 09:58 50.12130 8.93067 4017 ft 235 kts 249°
2026-05-06 09:58 50.11580 8.90710 4018 ft 236 kts 249°
2026-05-06 09:59 50.11020 8.88315 4002 ft 234 kts 249°
2026-05-06 09:59 50.10458 8.85922 3935 ft 236 kts 249°
2026-05-06 09:59 50.09897 8.83544 3671 ft 231 kts 249°
2026-05-06 09:59 50.09349 8.81217 3394 ft 228 kts 249°
2026-05-06 10:00 50.08806 8.78916 3075 ft 222 kts 249°
2026-05-06 10:00 50.08280 8.76689 2783 ft 217 kts 249°
2026-05-06 10:00 50.07769 8.74522 2496 ft 209 kts 249°
2026-05-06 10:00 50.07282 8.72461 2238 ft 198 kts 249°
2026-05-06 10:01 50.06819 8.70507 2001 ft 187 kts 249°
2026-05-06 10:01 50.06379 8.68650 1731 ft 177 kts 248°
2026-05-06 10:01 50.05976 8.66951 1506 ft 159 kts 248°
2026-05-06 10:01 50.05614 8.65425 1314 ft 145 kts 248°
2026-05-06 10:02 50.05273 8.63990 1118 ft 139 kts 248°
2026-05-06 10:02 50.04937 8.62583 935 ft 138 kts 248°
2026-05-06 10:02 50.04618 8.61159 765 ft 138 kts 252°
2026-05-06 10:02 50.04285 8.59698 585 ft 145 kts 247°
2026-05-06 10:03 50.03918 8.58264 389 ft 142 kts 246°
2026-05-06 10:03 50.03610 8.56950 351 ft 110 kts 244°
2026-05-06 10:03 50.03392 8.56086 349 ft 61 kts 251°
2026-05-06 10:03 50.03301 8.55659 343 ft 28 kts 261°
2026-05-06 10:04 50.03321 8.55408 353 ft 17 kts 283°
2026-05-06 10:04 50.03347 8.55210 342 ft 17 kts 281°
2026-05-06 10:04 50.03353 8.55164 345 ft 0 kts 282°
2026-05-06 10:05 50.03354 8.55157 342 ft 3 kts 282°
2026-05-06 10:05 50.03362 8.55103 350 ft 7 kts 284°
2026-05-06 10:05 50.03385 8.55013 349 ft 13 kts 296°
2026-05-06 10:06 50.03427 8.54872 348 ft 14 kts 305°
2026-05-06 10:06 50.03518 8.54803 346 ft 15 kts 341°
2026-05-06 10:06 50.03629 8.54745 346 ft 18 kts 340°
2026-05-06 10:06 50.03719 8.54702 345 ft 11 kts 355°
2026-05-06 10:07 50.03774 8.54798 347 ft 18 kts 71°
2026-05-06 10:07 50.03817 8.54990 357 ft 18 kts 70°
2026-05-06 10:07 50.03865 8.55185 356 ft 20 kts 71°
2026-05-06 10:07 50.03914 8.55406 354 ft 23 kts 66°
2026-05-06 10:08 50.03971 8.55631 349 ft 21 kts 70°
2026-05-06 10:08 50.04022 8.55844 350 ft 21 kts 70°
2026-05-06 10:08 50.04083 8.55971 352 ft 11 kts
2026-05-06 10:08 50.04160 8.55932 352 ft 13 kts 335°
2026-05-06 10:09 50.04236 8.55929 356 ft 11 kts 29°
2026-05-06 10:09 50.04309 8.55950 355 ft 12 kts 338°
2026-05-06 10:09 50.04387 8.55921 357 ft 12 kts 13°
2026-05-06 10:09 50.04415 8.55985 356 ft 8 kts 92°
2026-05-06 10:10 50.04374 8.56047 359 ft 10 kts 163°
2026-05-06 10:10 50.04304 8.56087 355 ft 11 kts 144°
2026-05-06 10:10 50.04301 8.56199 359 ft 12 kts 65°
2026-05-06 10:10 50.04336 8.56330 356 ft 14 kts 73°
2026-05-06 10:11 50.04370 8.56485 359 ft 16 kts 70°
2026-05-06 10:11 50.04410 8.56661 358 ft 18 kts 70°
2026-05-06 10:11 50.04459 8.56855 364 ft 20 kts 70°
2026-05-06 10:11 50.04511 8.57076 360 ft 21 kts 69°
2026-05-06 10:12 50.04563 8.57295 357 ft 21 kts 70°
2026-05-06 10:12 50.04617 8.57518 361 ft 23 kts 69°
2026-05-06 10:12 50.04671 8.57745 366 ft 22 kts 69°
2026-05-06 10:12 50.04732 8.57929 364 ft 12 kts 39°
2026-05-06 10:13 50.04795 8.58028 359 ft 14 kts 62°
2026-05-06 10:13 50.04834 8.58176 364 ft 15 kts 70°
2026-05-06 10:13 50.04872 8.58339 360 ft 17 kts 70°
2026-05-06 10:13 50.04915 8.58514 360 ft 17 kts 70°
2026-05-06 10:14 50.04953 8.58682 360 ft 17 kts 70°
2026-05-06 10:14 50.04985 8.58806 363 ft 7 kts 58°
2026-05-06 10:14 50.05034 8.58790 359 ft 8 kts 329°
2026-05-06 10:14 50.05060 8.58766 359 ft 1 kts 328°
2026-05-06 10:15 50.05065 8.58762 359 ft 0 kts 328°